Voltar ao catálogo

FENGYUN 1C DEB

AtivoSSO
NORAD 31462·DEBRIS·🇨🇳 China

Lançado May 10, 1999 de Taiyuan Satellite Launch Center

Loading…

Próximas Passagens (próximas 24 horas)

TLE

AtualizadoSource: Space-Track

Época: Sep 11, 2026, 06:37 UTC

1 31462U 99025BVA 26254.27618351  .00000326  00000-0  19536-3 0  9991
2 31462  98.6772 269.5714 0032986 147.0405 274.6630 14.13304478997053

Acompanhe FENGYUN 1C DEB em tempo real com AllMySat

Download on the App Store